Regional Weather Roundup
Issued by NWS

Home | Current Version | Previous Version | Graphics & Text | Print | Product List | Glossary On
Versions: 1 2 3 4 5 6 7 8 9 10 11 12 13 14 15 16 17 18 19 20 21 22 23 24 25 26 27 28 29 30 31 32 33 34 35 36 37 38 39 40 41 42 43 44 45 46 47 48 49 50
000
ASUS43 KMKX 290221
RWRWI

WISCONSIN REGIONAL WEATHER ROUNDUP
NATIONAL WEATHER SERVICE MILWAUKEE/SULLIVAN WI
900 PM CDT WED JUN 28 2017

NOTE: "FAIR" INDICATES FEW OR NO CLOUDS BELOW 12,000 FEET WITH NO
SIGNIFICANT WEATHER AND/OR OBSTRUCTIONS TO VISIBILITY.

WIZ001-002-006>008-014>016-023>028-290300-
NORTHWEST WISCONSIN

CITY           SKY/WX    TMP DP  RH WIND       PRES   REMARKS
SUPERIOR ARPT  NOT AVBL
ASHLAND        LGT RAIN  64  64 100 E6        29.51F FOG
HAYWARD        LGT RAIN  67  65  93 S8        29.51F
SIREN          CLOUDY    68  66  93 SW6       29.51S
CUMBERLAND     CLOUDY    64  63  94 S7        29.54S
RICE LAKE      CLOUDY    67  66  94 S5        29.55S
CHETEK         CLOUDY    67  66  97 S5        29.55S
LADYSMITH      CLOUDY    68  66  94 S9        29.57S
EAU CLAIRE     CLOUDY    66  64  93 SW7       29.55F
MENOMONIE      CLOUDY    67  66  96 SE5       29.56S
NEW RICHMOND   PTCLDY    70  60  69 W8        29.55R
OSCEOLA        MOCLDY    70  63  77 SW7       29.56S
$$

WIZ003>005-009-010-017-018-290300-
NORTH CENTRAL WISCONSIN

CITY           SKY/WX    TMP DP  RH WIND       PRES   REMARKS
MANITOWISH WTR RAIN      64  64 100 S6        29.57F
ARBOR VITAE    LGT RAIN  64  63  96 S3        29.57F
WOODRUFF       LGT RAIN  64  63  96 S3        29.57F
RHINELANDER    CLOUDY    64  64 100 S5        29.59F
EAGLE RIVER    LGT RAIN  63  63 100 CALM      29.60F
LAND O LAKES   CLOUDY    63  63  99 SE7       29.62F
PHILLIPS       CLOUDY    66  66 100 S8        29.54F
TOMAHAWK       NOT AVBL
MEDFORD        CLOUDY    65  64  97 S6        29.57F
MERRILL        CLOUDY    66  66 100 S6        29.59S
$$

WIZ029-030-035-036-043>047-290300-
CENTRAL WISCONSIN

CITY           SKY/WX    TMP DP  RH WIND       PRES   REMARKS
WAUSAU         CLOUDY    66  65  96 SE6       29.57R
MOSINEE        CLOUDY    66  66 100 S8        29.60R FOG
MARSHFIELD     CLOUDY    66  64  93 S8        29.56F FOG
STEVENS POINT  CLOUDY    65  65 100 S6        29.60F FOG
WAUPACA        CLOUDY    68  67  98 SE6       29.61F FOG
WAUTOMA        CLOUDY    66  66 100 SE9       29.64R FOG
WISC RAPIDS    LGT RAIN  68  66  93 S6        29.61F FOG
CAMP DOUGLAS   LGT RAIN  68  66  94 S8        29.62R
$$

WIZ011>013-019>022-031-037>040-048>050-290300-
NORTHEAST WISCONSIN

CITY           SKY/WX    TMP DP  RH WIND       PRES   REMARKS
ANTIGO         CLOUDY    64  64 100 SE10G16   29.60F FOG
SHAWANO        CLOUDY    68  64  88 S6        29.62F
OCONTO         CLOUDY    63  61  93 S5        29.64S
STURGEON BAY     N/A     60  59  96 S16G24    29.67R
GREEN BAY      CLOUDY    66  66 100 S7        29.66R
MANITOWOC      LGT RAIN  60  58  92 S15       29.67F FOG
APPLETON       MOCLDY    66  66 100 S6        29.63S
CLINTONVILLE   CLOUDY    64  63  94 SE7       29.62S FOG
OSHKOSH        CLOUDY    66  63  90 SW8       29.65R
$$

WIZ032>034-041-042-053>061-290300-
SOUTHWEST WISCONSIN

CITY           SKY/WX    TMP DP  RH WIND       PRES   REMARKS
LA CROSSE      TSTM      71  67  87 S12       29.61S
SPARTA         LGT RAIN  66  65  97 S5        29.62F
VIROQUA        CLOUDY    65  65 100 SE7       29.64S
BOSCOBEL       CLOUDY    67  65  93 W3        29.64F
PRAIRIE DU CHI CLOUDY    66  65  96 CALM      29.62F
PLATTEVILLE    CLOUDY    67  67 100 SW10      29.72R
$$

WIZ056-057-062-063-064-067-068-290300-
SOUTH CENTRAL WISCONSIN

CITY           SKY/WX    TMP DP  RH WIND       PRES   REMARKS
REEDSBURG      CLOUDY    66  65  98 S7        29.64R
BARABOO/DELLS  CLOUDY    66  64  90 S6        29.67R
LONE ROCK      LGT RAIN  68  64  87 CALM      29.67R
MINERAL POINT  HVY RAIN  68  68 100 NW10      29.71R
MADISON        CLOUDY    67  64  90 S10       29.68R
MIDDLETON      CLOUDY    68  64  89 SW8       29.69R
WATERTOWN      CLOUDY    62  62 100 S5        29.71R
MONROE         CLOUDY    64  64 100 SW9       29.69
JANESVILLE     TSTM      64  64 100 S13G18    29.75R
$$

WIZ051-052-058>065-066-070>072-290300-
SOUTHEAST WISCONSIN

CITY           SKY/WX    TMP DP  RH WIND       PRES   REMARKS
MILWAUKEE      TSTM      66  63  90 SW9       29.78R FOG
WAUKESHA       RAIN      61  61 100 SE17G24   29.71F FOG
MILWAUKEE/TIMM TSTM      63  59  88 S13       29.76F
RACINE         TSTM      65  62  90 W13G30    29.84R VSB 3/4
KENOSHA        TSTM      64  63  96 CALM      29.80R FOG
FOND DU LAC    CLOUDY    66  60  81 SW8       29.68R
SHEBOYGAN      TSTM      64  63  96 VRB5G20   29.69R
WEST BEND      LGT RAIN  63  61  94 S16G24    29.67F
JUNEAU         CLOUDY    62  60  91 SW9       29.72R
$$

LSZ147-162-290300-
LAKE SUPERIOR

STATION/POSITION TIME  TEMP    WIND        PRES    WAVE
                       AIR SEA DIR/SP/G            HT/PER
                 (UTC) (F)     (DEG/KT/KT) (MB)    (FT/S)
W MID LAKE BUOY  0150   45 39   60/ 12/ 14 1001.7F   1/ 3
DEVILS ISLAND    0200   55      90/ 11/ 11 1000.0F
SAXON HARBOR     0130   67     180/  4/ 10  999.3F
$$

LMZ867-665-643>646-290300-
LAKE MICHIGAN

STATION/POSITION TIME  TEMP    WIND        PRES    WAVE
                       AIR SEA DIR/SP/G            HT/PER
                 (UTC) (F)     (DEG/KT/KT) (MB)    (FT/S)
CHAMBERS ISLAND  0140   62     150/  4/ 11 1004.1F
S GREEN BAY BUOY 0200   65     170/ 17/ 23 1003.7
N MID LAKE BUOY  0150   57 54  160/ 12/ 14 1005.5F   5/ 7
NORTHPORT PIER   0140   60     150/ 10/ 15 1004.7F
KEWAUNEE LAKESHO 0154   57     180/ 14/ 16 1004.6F
SHEBOYGAN LAKESH 0200   56     140/ 29/ 30 1001.5F
PORT WASHINGTON  0140   63     190/  9/ 17 1005.8F
ATWATER BUOY     0109   59 51  300/ 16/ 21 1009.0F
MILWAUKEE LAKESH 0200   62     180/  9/ 11   N/A
S MID LAKE BUOY  0150   65 60  180/  8/ 10 1007.9F   4/ 6
KENOSHA   LAKESH 0200   73     320/ 13/ 17 1008.1
$$

TC  - TEMPERATURE IN CELSIUS
VSB - VISIBILITY IN STATUTE MILES
WCI - WIND CHILL INDEX
HX  - HEAT INDEX





USA.gov is the U.S. government's official web portal to all federal, state and local government web resources and services.